TimeCDT,TemperatureF,Dew PointF,Humidity,Sea Level PressureIn,VisibilityMPH,Wind Direction,Wind SpeedMPH,Gust SpeedMPH,PrecipitationIn,Events,Conditions,WindDirDegrees,DateUTC
12:53 AM,46.9,41.0,80,30.22,10.0,NNE,5.8,-,0.00,Rain,Light Rain,30,2012-10-07 05:53:00
1:53 AM,46.9,42.1,83,30.21,10.0,Variable,3.5,-,0.00,,Overcast,0,2012-10-07 06:53:00
2:53 AM,48.0,42.1,80,30.21,10.0,Calm,Calm,-,N/A,,Overcast,0,2012-10-07 07:53:00
3:53 AM,48.0,39.9,74,30.22,10.0,North,3.5,-,N/A,,Overcast,10,2012-10-07 08:53:00
4:53 AM,48.0,39.9,74,30.22,10.0,Variable,3.5,-,N/A,,Overcast,0,2012-10-07 09:53:00
5:53 AM,46.9,41.0,80,30.23,10.0,Variable,4.6,-,N/A,,Overcast,0,2012-10-07 10:53:00
6:53 AM,46.9,41.0,80,30.25,10.0,Variable,4.6,-,N/A,,Overcast,0,2012-10-07 11:53:00
7:53 AM,46.9,41.0,80,30.27,10.0,Variable,4.6,-,N/A,,Overcast,0,2012-10-07 12:53:00
8:53 AM,48.9,41.0,74,30.27,10.0,NE,9.2,-,N/A,,Scattered Clouds,40,2012-10-07 13:53:00
9:53 AM,51.1,39.9,66,30.28,10.0,NE,12.7,20.7,N/A,,Clear,40,2012-10-07 14:53:00
10:53 AM,53.1,39.9,61,30.28,10.0,Variable,6.9,-,N/A,,Clear,0,2012-10-07 15:53:00
11:53 AM,57.0,39.9,53,30.26,10.0,NE,9.2,-,N/A,,Clear,40,2012-10-07 16:53:00
12:53 PM,59.0,41.0,51,30.24,10.0,ENE,6.9,-,N/A,,Partly Cloudy,60,2012-10-07 17:53:00
1:53 PM,61.0,39.9,46,30.21,10.0,ENE,11.5,16.1,N/A,,Partly Cloudy,60,2012-10-07 18:53:00
2:53 PM,61.0,41.0,48,30.19,10.0,NE,6.9,-,N/A,,Partly Cloudy,40,2012-10-07 19:53:00
3:53 PM,60.1,41.0,49,30.18,10.0,NE,9.2,-,N/A,,Clear,40,2012-10-07 20:53:00
4:53 PM,57.9,41.0,53,30.17,10.0,NNE,4.6,-,N/A,,Mostly Cloudy,20,2012-10-07 21:53:00
5:53 PM,57.0,42.1,57,30.17,10.0,Calm,Calm,-,N/A,,Overcast,0,2012-10-07 22:53:00
6:53 PM,55.0,41.0,59,30.18,10.0,Calm,Calm,-,N/A,,Overcast,0,2012-10-07 23:53:00
7:53 PM,50.0,45.0,83,30.20,4.0,NW,3.5,-,0.06,Rain,Heavy Rain,320,2012-10-08 00:53:00
8:53 PM,48.9,46.0,90,30.22,10.0,Calm,Calm,-,0.05,Rain,Light Rain,0,2012-10-08 01:53:00
9:53 PM,48.9,45.0,86,30.19,10.0,Calm,Calm,-,0.03,Rain,Light Rain,0,2012-10-08 02:53:00
10:53 PM,48.0,45.0,89,30.21,6.0,NNE,3.5,-,0.06,Rain,Rain,20,2012-10-08 03:53:00
11:53 PM,46.9,43.0,86,30.23,3.0,WNW,3.5,-,0.12,Rain,Heavy Rain,290,2012-10-08 04:53:00